GW3041 Weather Reports


time (UTC)temp
C
wind
direction
speed
KPH
gust
KPH
rain 1hr
cm
rain 24hr
cm
rain mn
cm
humidity
%
barometer
mb
20260507213054 10 227 0.0 3.2 0.00 0.15 0.10 91 1014.0
20260507211555 10 257 0.0 0.0 0.00 0.15 0.10 90 1014.0
20260507210046 10 160 0.0 1.6 0.00 0.15 0.10 90 1013.9
20260507204532 11 160 0.0 3.2 0.00 0.18 0.10 90 1013.7
20260507203023 11 145 0.0 0.0 0.00 0.18 0.10 89 1013.5
20260507201516 11 145 0.0 1.6 0.00 0.18 0.10 89 1013.3
20260507200005 11 145 0.0 1.6 0.00 0.41 0.10 88 1012.8
20260507194601 11 145 0.0 1.6 0.00 0.41 0.10 87 1012.7
20260507193056 12 145 0.0 0.0 0.00 0.41 0.10 86 1012.5
20260507191544 12 145 0.0 0.0 0.00 0.41 0.10 84 1012.3
20260507190037 13 145 0.0 0.0 0.00 0.41 0.10 84 1012.0
20260507184524 13 167 0.0 0.0 0.00 0.43 0.10 83 1011.7
20260507183014 13 241 0.0 0.0 0.00 0.43 0.10 81 1011.4
20260507181501 14 200 0.0 3.2 0.00 0.43 0.10 81 1011.1
20260507180106 14 257 0.0 3.2 0.00 0.43 0.10 81 1010.8
20260507174617 14 274 1.6 4.8 0.00 0.43 0.10 80 1010.7
20260507173042 15 249 0.0 4.8 0.00 0.43 0.10 79 1010.5
20260507171545 15 246 3.2 16.1 0.00 0.43 0.10 78 1010.4
20260507170026 15 259 1.6 4.8 0.00 0.43 0.10 78 1010.2
20260507164516 15 249 3.2 4.8 0.00 0.43 0.10 79 1010.1
20260507163006 15 259 1.6 4.8 0.00 0.43 0.10 79 1010.1
20260507161602 15 259 1.6 4.8 0.00 0.43 0.10 79 1010.1
20260507160113 15 244 1.6 4.8 0.00 0.43 0.10 77 1010.2
20260507154543 15 244 1.6 4.8 0.00 0.43 0.10 78 1010.2
20260507153034 15 253 3.2 4.8 0.00 0.43 0.10 78 1010.2
20260507151527 15 245 1.6 4.8 0.00 0.43 0.10 79 1010.4
20260507150018 16 249 3.2 14.5 0.00 0.43 0.10 77 1010.5
20260507144509 16 177 3.2 11.3 0.00 0.43 0.10 77 1010.6
20260507143119 16 223 1.6 8.0 0.00 0.43 0.10 77 1010.7
20260507141610 16 165 3.2 9.7 0.00 0.43 0.10 75 1010.9
20260507140047 17 237 3.2 8.0 0.00 0.43 0.10 77 1010.9
20260507134537 17 147 1.6 12.9 0.00 0.71 0.10 75 1011.1
20260507133027 18 108 6.4 16.1 0.00 0.71 0.10 66 1011.4
20260507131533 17 301 11.3 17.7 0.00 0.71 0.10 67 1011.7
20260507130011 17 306 8.0 17.7 0.00 1.30 0.10 66 1011.7
20260507124605 16 301 6.4 22.5 0.00 1.30 0.10 69 1011.4
20260507123102 17 282 1.6 6.4 0.00 1.30 0.10 77 1011.1
20260507121546 17 249 1.6 4.8 0.00 1.30 0.10 79 1010.9
20260507120041 19 137 6.4 19.3 0.00 1.30 0.10 60 1010.9
20260507114528 20 129 11.3 20.9 0.00 1.32 0.10 58 1010.9
20260507113049 20 131 11.3 20.9 0.00 1.32 0.10 60 1011.2
20260507111510 19 97 8.0 17.7 0.00 1.32 0.10 65 1011.3
20260507110002 20 135 9.7 19.3 0.00 1.32 0.10 62 1011.5
20260507104607 17 122 3.2 11.3 0.00 1.32 0.10 72 1011.7
20260507103050 18 107 9.7 14.5 0.00 1.32 0.10 67 1012.0
20260507101543 16 124 4.8 9.7 0.00 1.32 0.10 77 1012.1
20260507100046 14 353 0.0 0.0 0.00 1.32 0.10 85 1012.3
20260507094529 15 353 0.0 0.0 0.00 1.40 0.10 82 1012.4
20260507093027 15 353 0.0 3.2 0.00 1.40 0.10 80 1012.4
20260507091513 16 321 1.6 6.4 0.00 1.40 0.10 68 1012.4
20260507090006 16 294 0.0 4.8 0.00 1.42 0.10 69 1012.5
20260507084602 15 337 0.0 6.4 0.00 1.42 0.10 73 1012.6
20260507083044 14 338 0.0 4.8 0.00 1.42 0.10 76 1012.6
20260507081538 13 73 0.0 6.4 0.00 1.42 0.10 82 1012.6
20260507080032 13 360 0.0 4.8 0.00 1.42 0.10 80 1012.7
20260507074522 13 59 0.0 4.8 0.00 1.50 0.10 86 1013.0
20260507073013 12 84 0.0 3.2 0.00 1.50 0.10 90 1013.1
20260507071507 11 81 0.0 4.8 0.00 1.50 0.10 93 1013.1
20260507070110 11 79 1.6 3.2 0.00 1.50 0.10 96 1013.0
20260507064553 9 89 0.0 0.0 0.00 1.68 0.10 96 1013.1
20260507063050 8 150 0.0 0.0 0.00 1.68 0.10 96 1013.1
20260507061538 7 150 0.0 0.0 0.00 1.68 0.10 96 1013.2
20260507060033 7 150 0.0 0.0 0.00 1.83 0.10 96 1013.1
20260507054509 7 150 0.0 0.0 0.00 1.83 0.10 96 1013.0
20260507053100 6 150 0.0 0.0 0.00 1.83 0.10 95 1012.8
20260507051600 6 150 0.0 0.0 0.00 1.83 0.10 95 1012.7
20260507044546 7 150 0.0 0.0 0.00 2.21 0.10 95 1012.3
20260507043030 7 150 0.0 0.0 0.00 2.21 0.10 95 1012.3
20260507041521 7 150 0.0 3.2 0.00 2.21 0.10 95 1012.1
20260507040020 7 150 0.0 1.6 0.00 2.77 0.10 95 1012.2
20260507034510 7 150 0.0 3.2 0.00 2.77 0.10 95 1012.3
20260507033003 7 150 0.0 3.2 0.00 2.77 0.10 95 1012.1
20260507031559 7 150 3.2 4.8 0.00 2.77 0.10 95 1012.1
20260507030051 8 153 0.0 1.6 0.00 2.77 0.10 95 1012.0
20260507024547 8 153 0.0 3.2 0.00 3.07 0.10 95 1012.0
20260507023037 8 153 0.0 3.2 0.00 3.07 0.10 95 1012.2
20260507021545 8 153 0.0 1.6 0.00 3.07 0.10 95 1012.1
20260507020024 8 153 0.0 4.8 0.00 3.07 0.10 95 1011.9
20260507014514 8 291 0.0 3.2 0.00 3.10 0.10 95 1011.5
20260507013008 8 291 0.0 3.2 0.00 3.10 0.10 95 1011.3
20260507011605 8 156 3.2 6.4 0.00 3.10 0.10 95 1011.5
20260507010059 8 133 0.0 3.2 0.00 3.10 0.10 95 1011.4
20260507004549 9 310 0.0 3.2 0.00 3.10 0.10 95 1011.4
20260507003043 9 310 1.6 4.8 0.00 3.10 0.10 95 1011.4
20260507001538 10 309 0.0 1.6 0.00 3.10 0.10 95 1011.5
20260507000035 10 309 0.0 1.6 0.00 3.10 0.10 95 1011.4
20260506234525 10 309 0.0 4.8 0.00 3.15 0.10 95 1011.4
20260506233020 10 169 0.0 4.8 0.05 3.15 0.10 95 1011.6
20260506231512 10 144 0.0 1.6 0.10 3.15 0.10 95 1011.5
20260506230110 10 144 0.0 3.2 0.10 3.15 0.10 95 1011.5
20260506224547 10 144 0.0 3.2 0.08 3.12 0.08 95 1011.4
20260506223037 10 144 0.0 3.2 0.05 3.07 0.05 95 1011.5
20260506221530 10 144 0.0 3.2 0.03 3.05 0.00 95 1011.5
20260506220032 10 314 0.0 1.6 0.03 3.05 0.00 95 1011.2
20260506214516 10 314 0.0 3.2 0.05 3.17 3.05 95 1011.1